User: anonymous   Login
Location: Unspecified
(0.0000°N, 0.0000°E)
Time: 07:37:02
(UTC+00:00)
Language:

P76-5 - Orbit

View from above orbital plane
View from above orbital plane
View from above satellite
View from above satellite

Ground track
Ground track

The orbit data is extracted from the following two-line orbital elements,

1 08860U 76047A   24104.51030247  .00000139  00000-0  21801-3 0  9997
2 08860  99.9411 284.4235 0041575 215.6126 208.2424 13.67956772387722
Epoch (UTC): 13 April 2024 12:14:50
Eccentricity: 0.0041575
inclination: 99.9411°
perigee height: 976 km
apogee height: 1037 km
right ascension of ascending node: 284.4235°
argument of perigee: 215.6126°
revolutions per day: 13.67956772
mean anomaly at epoch: 208.2424°
orbit number at epoch: 38772

The dashed part of the orbit path shows where the satellite is in the earth's shadow,  

DLR